Satellite: UO-22
Catalog number: 21575
Epoch time:      05068.80391413
Element set:    0350
Inclination:      098.2319 deg
RA of node:       037.9436 deg
Eccentricity:    0.0007921
Arg of perigee:   036.8887 deg
Mean anomaly:     323.2838 deg
Mean motion:   14.39467337 rev/day
Decay rate:       1.29e-06 rev/day^2
Epoch rev:           71620
Checksum:              317

Satellite: KO-23
Catalog number: 22077
Epoch time:      05068.78686740
Element set:    0413
Inclination:      066.0907 deg
RA of node:       354.6211 deg
Eccentricity:    0.0015312
Arg of perigee:   280.4197 deg
Mean anomaly:     079.5092 deg
Mean motion:   12.86428478 rev/day
Decay rate:       -3.7e-07 rev/day^2
Epoch rev:           59080
Checksum:              315

Satellite: AO-27
Catalog number: 22825
Epoch time:      05068.63722077
Element set:    0083
Inclination:      098.2496 deg
RA of node:       069.4176 deg
Eccentricity:    0.0008436
Arg of perigee:   190.4499 deg
Mean anomaly:     169.6488 deg
Mean motion:   14.29117254 rev/day
Decay rate:       -1.4e-07 rev/day^2
Epoch rev:           59700
Checksum:              336

Satellite: IO-26
Catalog number: 22826
Epoch time:      05068.61555102
Element set:    0749
Inclination:      098.2432 deg
RA of node:       070.6864 deg
Eccentricity:    0.0008892
Arg of perigee:   189.3733 deg
Mean anomaly:     170.7278 deg
Mean motion:   14.29356887 rev/day
Decay rate:       1.30e-06 rev/day^2
Epoch rev:           59706
Checksum:              338

Satellite: KO-25
Catalog number: 22828
Epoch time:      05066.60506152
Element set:    0003
Inclination:      098.2391 deg
RA of node:       068.9987 deg
Eccentricity:    0.0009855
Arg of perigee:   174.0225 deg
Mean anomaly:     186.1088 deg
Mean motion:   14.29671229 rev/day
Decay rate:       -4.2e-07 rev/day^2
Epoch rev:           56500
Checksum:              310

Satellite: TO-31
Catalog number: 25396
Epoch time:      05068.75152738
Element set:    0196
Inclination:      098.5397 deg
RA of node:       138.9455 deg
Eccentricity:    0.0003640
Arg of perigee:   110.8522 deg
Mean anomaly:     249.3068 deg
Mean motion:   14.23660463 rev/day
Decay rate:       -4.3e-07 rev/day^2
Epoch rev:           34626
Checksum:              317

Satellite: GO-32
Catalog number: 25397
Epoch time:      05068.79467005
Element set:    0694
Inclination:      098.5319 deg
RA of node:       136.6924 deg
Eccentricity:    0.0002135
Arg of perigee:   121.6991 deg
Mean anomaly:     238.4394 deg
Mean motion:   14.23071825 rev/day
Decay rate:       1.43e-06 rev/day^2
Epoch rev:           34619
Checksum:              320

Satellite: UO-36
Catalog number: 25693
Epoch time:      05068.77265392
Element set:    0984
Inclination:      064.5573 deg
RA of node:       229.0084 deg
Eccentricity:    0.0034769
Arg of perigee:   224.3398 deg
Mean anomaly:     135.4917 deg
Mean motion:   14.78475037 rev/day
Decay rate:       2.71e-06 rev/day^2
Epoch rev:           31712
Checksum:              340

Satellite: SO-41
Catalog number: 26545
Epoch time:      05068.85412753
Element set:    0022
Inclination:      064.5559 deg
RA of node:       243.7630 deg
Eccentricity:    0.0039691
Arg of perigee:   322.1798 deg
Mean anomaly:     037.6491 deg
Mean motion:   14.80035584 rev/day
Decay rate:       3.65e-06 rev/day^2
Epoch rev:           24023
Checksum:              307

Satellite: MO-46
Catalog number: 26548
Epoch time:      05068.63565636
Element set:    0125
Inclination:      064.5554 deg
RA of node:       228.2649 deg
Eccentricity:    0.0037832
Arg of perigee:   312.4426 deg
Mean anomaly:     047.3504 deg
Mean motion:   14.82642440 rev/day
Decay rate:       4.02e-06 rev/day^2
Epoch rev:           24053
Checksum:              297

Satellite: SO-42
Catalog number: 26549
Epoch time:      05068.70123842
Element set:    0083
Inclination:      064.5556 deg
RA of node:       252.3134 deg
Eccentricity:    0.0040612
Arg of perigee:   328.8003 deg
Mean anomaly:     031.0655 deg
Mean motion:   14.78917692 rev/day
Decay rate:       1.33e-06 rev/day^2
Epoch rev:           24004
Checksum:              278

Satellite: NO-44
Catalog number: 26931
Epoch time:      05068.60966890
Element set:    0989
Inclination:      067.0523 deg
RA of node:       124.2554 deg
Eccentricity:    0.0007131
Arg of perigee:   263.3288 deg
Mean anomaly:     096.7010 deg
Mean motion:   14.29365550 rev/day
Decay rate:       -5.9e-07 rev/day^2
Epoch rev:           17953
Checksum:              322

Satellite: AO-49
Catalog number: 27605
Epoch time:      05068.46593243
Element set:    0682
Inclination:      064.5579 deg
RA of node:       078.5244 deg
Eccentricity:    0.0085571
Arg of perigee:   259.7677 deg
Mean anomaly:     099.3768 deg
Mean motion:   14.72051099 rev/day
Decay rate:       2.45e-06 rev/day^2
Epoch rev:           11917
Checksum:              359

Satellite: SO-50
Catalog number: 27607
Epoch time:      05068.50327855
Element set:    0663
Inclination:      064.5569 deg
RA of node:       083.5043 deg
Eccentricity:    0.0086245
Arg of perigee:   258.8771 deg
Mean anomaly:     100.2635 deg
Mean motion:   14.70904398 rev/day
Decay rate:       3.62e-06 rev/day^2
Epoch rev:           11907
Checksum:              318

